Jackson, MS

10:58 AM CDT on May 24, 2017 (GMT -0500)
Jackson-Evers International

Weather History for KJAN - September, 2012

Change the Weather History Date:

Saturday, September 29, 2012

  Actual Average Record
Temperature  
Mean Temperature 74 °F 71 °F  
Max Temperature 79 °F 83 °F 99 °F (1953)
Min Temperature 69 °F 59 °F 35 °F (1967)
Degree Days  
Heating Degree Days 0 1  
Month to date heating degree days 1 5  
Since 1 July heating degree days 1 5  
Cooling Degree Days 9 7  
Month to date cooling degree days 326 320  
Year to date cooling degree days 2431 2119  
Growing Degree Days 24 (Base 50)    
Moisture  
Dew Point 70 °F    
Average Humidity 87    
Maximum Humidity 100    
Minimum Humidity 74    
Precipitation  
Precipitation 0.77 in 0.11 in 2.12 in (1989)
Month to date precipitation 2.70 2.92  
Year to date precipitation 55.41 40.20  
Sea Level Pressure  
Sea Level Pressure 29.92 in    
Wind  
Wind Speed 3 mph (East)    
Max Wind Speed 16 mph    
Max Gust Speed 21 mph    
Visibility 7 miles    
Events Rain    
T = Trace of Precipitation, MM = Missing Value Source: NWS Daily Summary

Daily Weather History Graph

Daily Weather History Graph

Search for Another Location

Airport or City:

Trip Planner

Search our weather history database for the weather conditions in past years. The results will help you decide how hot, cold, wet, or windy it might be!

Date:

Astronomy

Sep. 29, 2012 Rise Set
Actual Time 6:53 AM CDT 6:47 PM CDT
Civil Twilight 6:28 AM CDT 7:11 PM CDT
Nautical Twilight 6:00 AM CDT 7:39 PM CDT
Astronomical Twilight 5:31 AM CDT 8:08 PM CDT
Moon 6:22 PM CDT (9/29) 6:23 AM CDT (9/29)
Length of Visible Light 12h 42m
Length of Day
11h 53m
Full, 100% of the Moon is Illuminated
Sep 29
Full
Sep 29
Full
Oct 8
Last Quarter
Oct 15
New
Oct 21
First Quarter

Hourly Weather History & Observations

Time (CDT) Temp. Dew Point Humidity Pressure Visibility Wind Dir Wind Speed Gust Speed Precip Events Conditions
12:54 AM 70.0 °F 66.9 °F 90% 29.99 in 10.0 mi Calm Calm - N/A   Clear
1:54 AM 70.0 °F 68.0 °F 93% 29.99 in 9.0 mi Calm Calm - N/A   Clear
2:54 AM 71.1 °F 68.0 °F 90% 29.98 in 10.0 mi Calm Calm - N/A   Clear
3:54 AM 71.1 °F 68.0 °F 90% 29.98 in 10.0 mi Calm Calm - N/A   Clear
4:54 AM 71.1 °F 69.1 °F 93% 29.96 in 10.0 mi Calm Calm - N/A   Partly Cloudy
5:54 AM 71.1 °F 69.1 °F 93% 29.97 in 10.0 mi Calm Calm - N/A   Scattered Clouds
6:54 AM 71.1 °F 68.0 °F 90% 29.97 in 10.0 mi Calm Calm - N/A   Partly Cloudy
7:54 AM 72.0 °F 69.1 °F 91% 29.98 in 10.0 mi Calm Calm - N/A   Scattered Clouds
8:54 AM 75.0 °F 70.0 °F 84% 29.99 in 10.0 mi Calm Calm - N/A   Partly Cloudy
9:54 AM 75.9 °F 70.0 °F 82% 29.99 in 10.0 mi Calm Calm - N/A   Scattered Clouds
10:54 AM 78.1 °F 69.1 °F 74% 29.98 in 10.0 mi NE 3.5 mph - 0.00 in Rain Light Rain
11:54 AM 77.0 °F 70.0 °F 79% 29.97 in 10.0 mi ENE 3.5 mph - 0.00 in   Overcast
12:54 PM 78.1 °F 70.0 °F 76% 29.95 in 10.0 mi NE 4.6 mph - 0.00 in   Overcast
1:54 PM 79.0 °F 70.0 °F 74% 29.92 in 10.0 mi ESE 5.8 mph - N/A   Overcast
2:54 PM 78.1 °F 72.0 °F 81% 29.91 in 10.0 mi NE 4.6 mph - 0.00 in Rain Light Rain
3:54 PM 77.0 °F 73.0 °F 88% 29.90 in 5.0 mi Calm Calm - 0.01 in Rain Light Rain
4:26 PM 73.4 °F 69.8 °F 88% 29.90 in 1.0 mi Variable 5.8 mph - 0.04 in Rain Heavy Rain
4:29 PM 73.4 °F 71.6 °F 94% 29.90 in 0.8 mi ESE 3.5 mph - 0.13 in Rain Heavy Rain
4:35 PM 75.2 °F 69.8 °F 83% 29.90 in 2.0 mi NNE 3.5 mph - 0.24 in Rain Heavy Rain
4:54 PM 73.9 °F 71.1 °F 91% 29.88 in 3.0 mi NNE 16.1 mph 20.7 mph 0.29 in Rain Light Rain
5:13 PM 73.4 °F 69.8 °F 88% 29.89 in 2.5 mi NNE 5.8 mph - 0.07 in Rain Rain
5:15 PM 73.4 °F 69.8 °F 88% 29.89 in 3.0 mi NE 5.8 mph - 0.07 in Rain Light Rain
5:30 PM 73.4 °F 71.6 °F 94% 29.89 in 6.0 mi SSE 8.1 mph - 0.08 in Rain Light Rain
5:50 PM 73.4 °F 71.6 °F 94% 29.89 in 7.0 mi SSE 4.6 mph - 0.08 in   Overcast
5:54 PM 73.0 °F 71.1 °F 93% 29.88 in 7.0 mi SSE 4.6 mph - 0.08 in Rain Light Rain
6:21 PM 73.4 °F 69.8 °F 88% 29.89 in 10.0 mi SSE 6.9 mph - 0.00 in Rain Light Rain
6:54 PM 72.0 °F 71.1 °F 97% 29.88 in 7.0 mi Calm Calm - 0.00 in Rain Light Rain
7:18 PM 71.6 °F 69.8 °F 94% 29.89 in 6.0 mi Calm Calm - 0.01 in Rain Light Rain
7:36 PM 73.4 °F 71.6 °F 94% 29.90 in 7.0 mi Calm Calm - 0.02 in Rain Light Rain
7:54 PM 73.0 °F 71.1 °F 93% 29.89 in 5.0 mi NNE 3.5 mph - 0.03 in Rain Light Rain
8:40 PM 71.6 °F 69.8 °F 94% 29.90 in 5.0 mi East 4.6 mph - 0.04 in Rain Light Rain
8:54 PM 72.0 °F 70.0 °F 93% 29.89 in 4.0 mi East 4.6 mph - 0.07 in Rain Rain
9:00 PM 71.6 °F 69.8 °F 94% 29.91 in 4.0 mi East 3.5 mph - 0.00 in Rain Rain
9:12 PM 71.6 °F 69.8 °F 94% 29.90 in 5.0 mi ESE 3.5 mph - 0.02 in Rain Light Rain
9:29 PM 71.6 °F 69.8 °F 94% 29.90 in 6.0 mi Calm Calm - 0.04 in Rain Light Rain
9:51 PM 71.6 °F 69.8 °F 94% 29.90 in 7.0 mi East 3.5 mph - 0.05 in Rain Light Rain
9:54 PM 71.1 °F 69.1 °F 93% 29.90 in 7.0 mi East 3.5 mph - 0.05 in Rain Light Rain
10:01 PM 71.6 °F 69.8 °F 94% 29.91 in 8.0 mi ENE 3.5 mph - 0.01 in Rain Light Rain
10:54 PM 70.0 °F 66.9 °F 90% 29.90 in 4.0 mi East 3.5 mph - 0.02 in Rain Light Rain
11:06 PM 69.8 °F 66.2 °F 88% 29.91 in 3.0 mi East 3.5 mph - 0.02 in Rain Rain
11:15 PM 69.8 °F 68.0 °F 94% 29.90 in 2.5 mi Calm Calm - 0.06 in Rain Heavy Rain
11:35 PM 69.8 °F 68.0 °F 94% 29.90 in 4.0 mi ESE 4.6 mph - 0.11 in Rain Light Rain
11:54 PM 69.1 °F 68.0 °F 96% 29.89 in 6.0 mi South 5.8 mph - 0.12 in Rain Light Rain